| time (UTC) | temp C | wind direction | speed KPH | gust KPH | rain 1hr cm | rain 24hr cm | rain mn cm | humidity % | barometer mb |
| 20260504204558 | 27 | 192 | 6.4 | 24.1 | 0.00 | 0.00 | 0.00 | 50 | 1003.3 |
| 20260504203043 | 27 | 341 | 4.8 | 27.4 | 0.00 | 0.00 | 0.00 | 50 | 1003.2 |
| 20260504201542 | 27 | 265 | 6.4 | 22.5 | 0.00 | 0.00 | 0.00 | 51 | 1003.2 |
| 20260504200044 | 27 | 173 | 4.8 | 25.7 | 0.00 | 0.00 | 0.00 | 51 | 1003.3 |
| 20260504194541 | 26 | 198 | 6.4 | 19.3 | 0.00 | 0.00 | 0.00 | 52 | 1003.3 |
| 20260504193037 | 26 | 169 | 4.8 | 27.4 | 0.00 | 0.00 | 0.00 | 53 | 1003.4 |
| 20260504191543 | 26 | 240 | 8.0 | 25.7 | 0.00 | 0.00 | 0.00 | 51 | 1003.7 |
| 20260504190043 | 26 | 192 | 4.8 | 17.7 | 0.00 | 0.00 | 0.00 | 54 | 1004.0 |
| 20260504184555 | 25 | 277 | 0.0 | 17.7 | 0.00 | 0.00 | 0.00 | 56 | 1004.3 |
| 20260504183037 | 25 | 192 | 4.8 | 20.9 | 0.00 | 0.00 | 0.00 | 54 | 1004.3 |
| 20260504181545 | 25 | 103 | 6.4 | 17.7 | 0.00 | 0.00 | 0.00 | 52 | 1004.2 |
| 20260504180044 | 25 | 249 | 4.8 | 24.1 | 0.00 | 0.00 | 0.00 | 54 | 1004.5 |
| 20260504174545 | 24 | 105 | 4.8 | 14.5 | 0.00 | 0.00 | 0.00 | 56 | 1004.5 |
| 20260504173043 | 23 | 229 | 1.6 | 17.7 | 0.00 | 0.00 | 0.00 | 59 | 1004.6 |
| 20260504171545 | 22 | 138 | 4.8 | 14.5 | 0.00 | 0.00 | 0.00 | 60 | 1004.9 |
| 20260504160123 | 21 | 0 | 4.8 | 17.7 | 0.00 | 0.00 | 0.00 | 62 | 1005.4 |
| 20260504081546 | 17 | 0 | 0.0 | 4.8 | 0.00 | 0.00 | 0.00 | 71 | 1007.7 |
| 20260504044543 | 16 | 0 | 0.0 | 0.0 | 0.00 | 0.00 | 0.00 | 78 | 1009.0 |
| 20260504043055 | 16 | 0 | 0.0 | 0.0 | 0.00 | 0.00 | 0.00 | 77 | 1009.2 |
| 20260504041547 | 16 | 0 | 0.0 | 0.0 | 0.00 | 0.00 | 0.00 | 76 | 1009.3 |
| 20260504040052 | 17 | 0 | 0.0 | 0.0 | 0.00 | 0.00 | 0.00 | 76 | 1009.5 |
| 20260504034550 | 17 | 0 | 0.0 | 0.0 | 0.00 | 0.00 | 0.00 | 75 | 1009.8 |
| 20260504033043 | 17 | 0 | 0.0 | 0.0 | 0.00 | 0.00 | 0.00 | 75 | 1009.8 |
| 20260504031541 | 17 | 0 | 0.0 | 0.0 | 0.00 | 0.00 | 0.00 | 75 | 1009.9 |
| 20260504030047 | 17 | 0 | 0.0 | 1.6 | 0.00 | 0.00 | 0.00 | 76 | 1009.9 |
| 20260504024538 | 18 | 0 | 0.0 | 0.0 | 0.00 | 0.00 | 0.00 | 74 | 1009.7 |
| 20260504023043 | 18 | 0 | 0.0 | 0.0 | 0.00 | 0.00 | 0.00 | 72 | 1009.6 |
| 20260504021538 | 19 | 0 | 0.0 | 0.0 | 0.00 | 0.00 | 0.00 | 70 | 1009.5 |
| 20260504020057 | 20 | 0 | 0.0 | 0.0 | 0.00 | 0.00 | 0.00 | 65 | 1009.3 |
| 20260504014554 | 20 | 0 | 0.0 | 0.0 | 0.00 | 0.00 | 0.00 | 62 | 1009.4 |
| 20260504013058 | 21 | 0 | 0.0 | 0.0 | 0.00 | 0.00 | 0.00 | 58 | 1008.9 |
| 20260504011545 | 22 | 0 | 0.0 | 0.0 | 0.00 | 0.00 | 0.00 | 56 | 1009.1 |
| 20260504010045 | 23 | 0 | 0.0 | 0.0 | 0.00 | 0.00 | 0.00 | 52 | 1009.0 |
| 20260504004553 | 23 | 0 | 0.0 | 3.2 | 0.00 | 0.00 | 0.00 | 50 | 1009.1 |
| 20260504003040 | 24 | 0 | 0.0 | 4.8 | 0.00 | 0.00 | 0.00 | 48 | 1009.1 |
| 20260504001615 | 25 | 0 | 1.6 | 9.7 | 0.00 | 0.00 | 0.00 | 47 | 1009.2 |
| 20260504000045 | 25 | 280 | 1.6 | 12.9 | 0.00 | 0.00 | 0.00 | 47 | 1009.4 |
| 20260503234539 | 25 | 0 | 0.0 | 12.9 | 0.00 | 0.00 | 0.00 | 46 | 1009.2 |
| 20260503233041 | 25 | 0 | 4.8 | 12.9 | 0.00 | 0.00 | 0.00 | 45 | 1009.5 |
| 20260503231537 | 25 | 352 | 1.6 | 12.9 | 0.00 | 0.00 | 0.00 | 45 | 1009.6 |
| 20260503230105 | 25 | 258 | 3.2 | 19.3 | 0.00 | 0.00 | 0.00 | 45 | 1009.7 |
| 20260503224543 | 25 | 254 | 0.0 | 12.9 | 0.00 | 0.00 | 0.00 | 46 | 1009.6 |
| 20260503223039 | 25 | 159 | 4.8 | 16.1 | 0.00 | 0.00 | 0.00 | 46 | 1009.9 |
| 20260503221537 | 25 | 244 | 3.2 | 20.9 | 0.00 | 0.00 | 0.00 | 45 | 1009.9 |
| 20260503220049 | 25 | 226 | 4.8 | 14.5 | 0.00 | 0.00 | 0.00 | 44 | 1010.0 |
| 20260503214540 | 25 | 291 | 3.2 | 24.1 | 0.00 | 0.00 | 0.00 | 45 | 1010.0 |
| 20260503213037 | 25 | 307 | 3.2 | 20.9 | 0.00 | 0.00 | 0.00 | 43 | 1010.1 |
| 20260503211537 | 25 | 249 | 8.0 | 22.5 | 0.00 | 0.00 | 0.00 | 43 | 1010.4 |
| 20260503210045 | 25 | 350 | 6.4 | 20.9 | 0.00 | 0.00 | 0.00 | 44 | 1010.5 |